Crane Lake, MN

1:35 AM CDT on October 22, 2019 (GMT -0500)
Crane Lake

Weather History for KCDD - September, 2019

Change the Weather History Date:

Saturday, September 21, 2019

  Actual Average Record
Temperature  
Mean Temperature 67 °F -  
Max Temperature 75 °F 61 °F 78 °F (2015)
Min Temperature 59 °F 42 °F 5 °F (2000)
Cooling Degree Days 2    
Growing Degree Days 17 (Base 50)    
Moisture  
Dew Point 65 °F    
Average Humidity 90    
Maximum Humidity 100    
Minimum Humidity 73    
Precipitation  
Precipitation 0.00 in - - ()
Sea Level Pressure  
Sea Level Pressure 29.72 in    
Wind  
Wind Speed 6 mph (South)    
Max Wind Speed 12 mph    
Max Gust Speed 23 mph    
Visibility 9 miles    
Events Fog , Rain , Thunderstorm    
Averages and records for this station are not official NWS values.
T = Trace of Precipitation, MM = Missing Value Source: NWS Daily Summary

Daily Weather History Graph

Daily Weather History Graph

Search for Another Location

Airport or City:

Astronomy

Sep. 21, 2019 Rise Set
Actual Time 6:54 AM CDT 7:10 PM CDT
Civil Twilight 6:23 AM CDT 7:41 PM CDT
Nautical Twilight 5:46 AM CDT 8:18 PM CDT
Astronomical Twilight 5:08 AM CDT 8:56 PM CDT
Moon 11:17 PM CDT (9/21) 2:31 PM CDT (9/21)
Length of Visible Light 13h 17m
Length of Day
12h 15m
Waning Gibbous, 54% of the Moon is Illuminated
Sep 21
Waning Gibbous
Sep 21
Last Quarter
Sep 28
New
Oct 5
First Quarter
Oct 13
Full

Hourly Weather History & Observations

Time (CDT) Temp. Dew Point Humidity Pressure Visibility Wind Dir Wind Speed Gust Speed Precip Events Conditions
12:03 AM 64.4 °F 62.6 °F 94% 29.92 in 10.0 mi SSE 3.5 mph - N/A   Scattered Clouds
12:24 AM 64.4 °F 62.6 °F 94% 29.91 in 10.0 mi SSE 4.6 mph - N/A   Scattered Clouds
12:44 AM 64.4 °F 62.6 °F 94% 29.90 in 10.0 mi SSE 5.8 mph - N/A   Mostly Cloudy
1:03 AM 64.4 °F 62.6 °F 94% 29.90 in 10.0 mi SE 4.6 mph - N/A   Overcast
1:24 AM 66.2 °F 64.4 °F 94% 29.89 in 10.0 mi SSE 6.9 mph - N/A   Overcast
1:43 AM 66.2 °F 64.4 °F 94% 29.88 in 10.0 mi SSE 5.8 mph - N/A Thunderstorm Overcast
2:03 AM 66.2 °F 64.4 °F 94% 29.86 in 10.0 mi SSE 6.9 mph - N/A   Mostly Cloudy
2:23 AM 66.2 °F 64.4 °F 94% 29.85 in 10.0 mi SSE 8.1 mph - N/A   Mostly Cloudy
2:44 AM 66.2 °F 64.4 °F 94% 29.84 in 10.0 mi South 8.1 mph - N/A   Scattered Clouds
3:04 AM 66.2 °F 64.4 °F 94% 29.82 in 10.0 mi SSE 5.8 mph - N/A   Clear
3:23 AM 66.2 °F 64.4 °F 94% 29.82 in 10.0 mi SSE 6.9 mph 17.3 mph N/A   Clear
3:44 AM 66.2 °F 64.4 °F 94% 29.81 in 10.0 mi SSE 8.1 mph - N/A   Clear
4:04 AM 66.2 °F 64.4 °F 94% 29.81 in 10.0 mi SSE 6.9 mph - N/A   Clear
4:24 AM 66.2 °F 64.4 °F 94% 29.80 in 10.0 mi SSE 5.8 mph - N/A   Clear
4:44 AM 66.2 °F 64.4 °F 94% 29.79 in 10.0 mi SSE 6.9 mph - N/A   Clear
5:03 AM 66.2 °F 64.4 °F 94% 29.78 in 10.0 mi SSE 4.6 mph - N/A   Clear
5:43 AM 66.2 °F 64.4 °F 94% 29.78 in 10.0 mi SSE 5.8 mph - N/A   Clear
6:04 AM 66.2 °F 64.4 °F 94% 29.78 in 10.0 mi SE 4.6 mph - N/A   Clear
6:23 AM 66.2 °F 64.4 °F 94% 29.77 in 10.0 mi SSE 4.6 mph - N/A   Clear
6:44 AM 66.2 °F 64.4 °F 94% 29.76 in 10.0 mi SSE 4.6 mph - N/A   Clear
7:03 AM 66.2 °F 64.4 °F 94% 29.77 in 10.0 mi SSE 3.5 mph - N/A   Scattered Clouds
7:24 AM 66.2 °F 64.4 °F 94% 29.76 in 10.0 mi South 4.6 mph - N/A   Overcast
7:43 AM 68.0 °F 64.4 °F 88% 29.75 in 10.0 mi SSE 4.6 mph - N/A   Mostly Cloudy
8:04 AM 68.0 °F 64.4 °F 88% 29.75 in 10.0 mi SSE 5.8 mph - N/A   Overcast
8:24 AM 68.0 °F 64.4 °F 88% 29.74 in 10.0 mi SSE 5.8 mph - N/A   Overcast
8:44 AM 68.0 °F 66.2 °F 94% 29.74 in 10.0 mi SSE 8.1 mph - N/A   Mostly Cloudy
9:04 AM 66.2 °F 66.2 °F 100% 29.72 in 3.0 mi SSE 5.8 mph - N/A Rain Light Rain
9:24 AM 66.2 °F 66.2 °F 100% 29.72 in 7.0 mi South 5.8 mph - N/A   Drizzle
9:44 AM 66.2 °F 66.2 °F 100% 29.72 in 7.0 mi South 8.1 mph - N/A Rain Rain
10:04 AM 68.0 °F 66.2 °F 94% 29.72 in 10.0 mi South 8.1 mph - N/A   Mostly Cloudy
10:23 AM 68.0 °F 66.2 °F 94% 29.71 in 10.0 mi SSE 5.8 mph - N/A   Overcast
10:44 AM 69.8 °F 66.2 °F 88% 29.64 in 10.0 mi SE 5.8 mph - N/A Rain , Thunderstorm Light Thunderstorms and Rain
11:03 AM 69.8 °F 66.2 °F 88% 29.68 in 10.0 mi South 9.2 mph - N/A Thunderstorm Mostly Cloudy
11:24 AM 69.8 °F 66.2 °F 88% 29.67 in 10.0 mi SSE 9.2 mph 18.4 mph N/A   Overcast
11:44 AM 69.8 °F 66.2 °F 88% 29.67 in 10.0 mi South 6.9 mph 17.3 mph N/A Thunderstorm Overcast
12:03 PM 71.6 °F 66.2 °F 83% 29.66 in 10.0 mi South 9.2 mph - N/A   Overcast
12:23 PM 71.6 °F 66.2 °F 83% 29.69 in 10.0 mi South 9.2 mph - N/A   Overcast
12:43 PM 71.6 °F 66.2 °F 83% 29.68 in 10.0 mi South 8.1 mph 16.1 mph N/A   Overcast
1:04 PM 71.6 °F 66.2 °F 83% 29.68 in 10.0 mi South 5.8 mph - N/A   Scattered Clouds
1:23 PM 71.6 °F 66.2 °F 83% 29.67 in 10.0 mi South 9.2 mph 18.4 mph N/A   Scattered Clouds
1:44 PM 71.6 °F 66.2 °F 83% 29.66 in 10.0 mi South 11.5 mph 19.6 mph N/A   Clear
2:04 PM 73.4 °F 66.2 °F 78% 29.66 in 10.0 mi South 8.1 mph 23.0 mph N/A   Clear
2:23 PM 73.4 °F 66.2 °F 78% 29.65 in 10.0 mi South 9.2 mph 21.9 mph N/A   Mostly Cloudy
2:44 PM 73.4 °F 66.2 °F 78% 29.65 in 10.0 mi SSW 8.1 mph 17.3 mph N/A   Overcast
3:04 PM 73.4 °F 66.2 °F 78% 29.65 in 10.0 mi SSW 10.4 mph 17.3 mph N/A   Overcast
3:24 PM 73.4 °F 66.2 °F 78% 29.65 in 10.0 mi SSW 11.5 mph 23.0 mph N/A   Overcast
3:43 PM 73.4 °F 66.2 °F 78% 29.65 in 10.0 mi SSW 8.1 mph - N/A   Overcast
4:03 PM 71.6 °F 66.2 °F 83% 29.65 in 10.0 mi South 8.1 mph - N/A   Overcast
4:23 PM 73.4 °F 66.2 °F 78% 29.64 in 10.0 mi South 5.8 mph - N/A   Overcast
4:43 PM 75.2 °F 66.2 °F 73% 29.63 in 10.0 mi SSW 6.9 mph 17.3 mph N/A   Mostly Cloudy
5:03 PM 73.4 °F 66.2 °F 78% 29.63 in 10.0 mi South 11.5 mph 18.4 mph N/A   Scattered Clouds
5:24 PM 75.2 °F 66.2 °F 73% 29.64 in 10.0 mi South 8.1 mph - N/A   Scattered Clouds
5:44 PM 73.4 °F 66.2 °F 78% 29.62 in 10.0 mi South 5.8 mph - N/A   Mostly Cloudy
6:04 PM 73.4 °F 66.2 °F 78% 29.63 in 10.0 mi SSW 4.6 mph - N/A   Scattered Clouds
6:23 PM 71.6 °F 66.2 °F 83% 29.63 in 10.0 mi South 3.5 mph - N/A   Clear
6:44 PM 71.6 °F 66.2 °F 83% 29.63 in 10.0 mi Calm Calm - N/A   Scattered Clouds
7:04 PM 69.8 °F 66.2 °F 88% 29.65 in 10.0 mi WNW 3.5 mph - N/A   Mostly Cloudy
7:23 PM 66.2 °F 64.4 °F 94% 29.66 in 3.0 mi Calm Calm - N/A Rain , Thunderstorm Rain
7:44 PM 64.4 °F 62.6 °F 94% 29.66 in 10.0 mi South 3.5 mph - N/A   Mostly Cloudy
8:04 PM 62.6 °F 62.6 °F 100% 29.68 in 10.0 mi Calm Calm - N/A   Mostly Cloudy
8:24 PM 62.6 °F 62.6 °F 100% 29.68 in 10.0 mi Calm Calm - N/A   Mostly Cloudy
8:43 PM 62.6 °F 62.6 °F 100% 29.68 in 10.0 mi South 3.5 mph - N/A   Scattered Clouds
9:03 PM 62.6 °F 60.8 °F 94% 29.67 in 10.0 mi South 3.5 mph - N/A   Clear
9:24 PM 60.8 °F 60.8 °F 100% 29.68 in 7.0 mi Calm Calm - N/A   Clear
9:44 PM 60.8 °F 60.8 °F 100% 29.68 in 1.0 mi Calm Calm - N/A   Clear
10:24 PM 59.0 °F 59.0 °F 100% 29.68 in 0.2 mi NW 3.5 mph - N/A Fog Fog
10:43 PM 59.0 °F 57.2 °F 94% 29.69 in 5.0 mi South 3.5 mph - N/A   Mostly Cloudy
11:03 PM 62.6 °F 62.6 °F 100% 29.68 in 3.0 mi Calm Calm - N/A Rain Light Rain
11:23 PM 60.8 °F 60.8 °F 100% 29.68 in 10.0 mi South 4.6 mph - N/A   Clear
11:44 PM 60.8 °F 60.8 °F 100% 29.67 in 10.0 mi Calm Calm - N/A   Clear